Hourly Data Report for September 01, 2017

All times are specified in Local Standard Time (LST). Add 1 hour to adjust for Daylight Saving Time where and when it is observed.

OTTAWA INTL A
ONTARIO

45°19'00.000" N
75°40'00.000" W
114.90 m
6106001
71628
YOW

Download Data

Hourly Data (September 2017)
Hourly Data Report for September 1, 2017
Temp Definition
°C
Dew Point Temp Definition
°C
Rel Hum Definition
%
Wind Dir Definition
10's deg

Wind Spd Definition
km/h
Visibility Definition
km
Stn Press Definition
kPa
Hmdx Definition


Wind Chill Definition


Weather Definition


TIME
00:00 Legend Double Dagger 7.8 3.8 76 31 15 24.1 100.61     LegendNANA
01:00 Legend Double Dagger 5.6 4.2 91 25 9 24.1 100.63     Clear
02:00 Legend Double Dagger 6.9 4.5 85 30 15 24.1 100.67     LegendNANA
03:00 Legend Double Dagger 6.2 3.8 85 30 13 24.1 100.67     LegendNANA
04:00 Legend Double Dagger 7.0 4.4 83 29 15 24.1 100.67     Clear
05:00 Legend Double Dagger 4.8 3.6 91 28 13 24.1 100.72     LegendNANA
06:00 Legend Double Dagger 5.7 4.5 92 27 14 24.1 100.79     LegendNANA
07:00 Legend Double Dagger 8.0 5.8 86 27 16 24.1 100.82     Mainly Clear
08:00 Legend Double Dagger 9.5 5.4 76 29 20 24.1 100.88     LegendNANA
09:00 Legend Double Dagger 11.2 4.9 65 28 19 24.1 100.88     LegendNANA
10:00 Legend Double Dagger 11.9 3.2 55 30 28 24.1 100.88     Mostly Cloudy
11:00 Legend Double Dagger 14.0 3.4 49 29 26 24.1 100.85     LegendNANA
12:00 Legend Double Dagger 13.4 3.1 49 30 33 24.1 100.82     LegendNANA
13:00 Legend Double Dagger 15.1 3.8 47 28 29 24.1 100.79     Mostly Cloudy
14:00 Legend Double Dagger 16.1 3.7 43 28 28 24.1 100.73     LegendNANA
15:00 Legend Double Dagger 16.8 3.9 42 30 22 24.1 100.73     LegendNANA
16:00 Legend Double Dagger 16.7 3.6 41 29 23 24.1 100.72     Mainly Clear
17:00 Legend Double Dagger 16.4 3.9 43 32 18 24.1 100.73     LegendNANA
18:00 Legend Double Dagger 15.0 4.2 48 31 16 24.1 100.76     LegendNANA
19:00 Legend Double Dagger 12.5 5.1 60 25 9 24.1 100.79     Clear
20:00 Legend Double Dagger 11.1 4.6 64 29 10 24.1 100.80     LegendNANA
21:00 Legend Double Dagger 10.1 5.6 73 26 6 24.1 100.86     LegendNANA
22:00 Legend Double Dagger 8.9 5.5 79 24 9 24.1 100.93     Clear
23:00 Legend Double Dagger 7.5 4.7 82 29 8 24.1 100.93     LegendNANA

Notes on Data Quality.

Legend

  • E = Estimated
  • M = Missing
  • NA = Not Available
  • ‡ = Partner data that is not subject to review by the National Climate Archives
Date modified: